CW4482 Weather Reports


Display with metric or nautical units.
time (UTC)temp
F
wind
direction
speed
MPH
gust
MPH
rain 1hr
in
rain 24hr
in
rain mn
in
humidity
%
barometer
mb
20260509081557 72 360 0.0 0.0 0.00 0.11 0.05 96 1009.1
20260509080029 73 360 0.0 0.0 0.00 0.11 0.05 96 1009.3
20260509074527 73 360 0.0 0.0 0.00 0.11 0.05 96 1009.4
20260509073025 73 360 0.0 0.0 0.00 0.11 0.05 96 1009.8
20260509071525 73 360 0.0 0.0 0.04 0.11 0.05 96 1009.8
20260509070028 73 360 0.0 0.0 0.05 0.11 0.05 96 1009.4
20260509064552 73 360 0.0 0.0 0.05 0.11 0.05 96 1009.5
20260509063032 73 360 0.0 0.0 0.05 0.11 0.05 96 1009.7
20260509061530 73 360 0.0 0.0 0.00 0.06 0.00 96 1009.9
20260509060023 73 360 0.0 0.0 0.00 0.06 0.00 96 1009.9
20260509054526 73 360 0.0 0.0 0.00 0.06 0.00 96 1009.9
20260509053048 72 360 0.0 0.0 0.00 0.06 0.00 96 1010.0
20260509051527 72 360 0.0 0.0 0.00 0.06 0.00 96 1010.0
20260509050025 72 360 0.0 0.0 0.00 0.06 0.00 96 1010.0
20260509044546 72 360 0.0 0.0 0.00 0.06 0.06 96 1010.3
20260509043029 72 360 0.0 0.0 0.00 0.06 0.06 96 1010.3
20260509041531 72 360 0.0 0.0 0.00 0.06 0.06 96 1009.9
20260509040026 72 360 0.0 0.0 0.00 0.06 0.06 95 1009.8
20260509034525 72 360 0.0 0.0 0.00 0.06 0.06 95 1009.8
20260509033025 72 360 0.0 0.0 0.00 0.06 0.06 96 1009.8
20260509031530 72 360 0.0 0.0 0.00 0.06 0.06 96 1009.8
20260509030024 72 360 0.0 0.0 0.00 0.06 0.06 95 1009.7
20260509024526 72 360 0.0 0.0 0.00 0.06 0.06 95 1009.6
20260509023029 72 360 0.0 0.0 0.00 0.06 0.06 95 1009.0
20260509021534 72 360 0.0 0.0 0.00 0.06 0.06 95 1009.4
20260509020017 72 360 0.0 0.0 0.00 0.06 0.06 95 1009.2
20260509014515 72 360 0.0 0.0 0.00 0.06 0.06 95 1009.1
20260509013038 72 360 0.0 0.0 0.00 0.06 0.06 95 1009.1
20260509011514 72 360 0.0 0.0 0.00 0.06 0.06 95 1009.0
20260509010035 72 360 0.0 0.0 0.00 0.06 0.06 95 1009.0
20260509004514 72 360 0.0 0.0 0.00 0.06 0.06 95 1008.8
20260509003024 72 360 0.0 0.0 0.00 0.06 0.06 95 1008.9
20260509001555 72 360 0.0 0.0 0.00 0.06 0.06 95 1009.0
20260509000035 72 360 0.0 0.0 0.00 0.06 0.06 95 1009.0
20260508234527 73 360 0.0 0.0 0.00 0.06 0.06 94 1009.4
20260508233039 73 360 0.0 0.0 0.00 0.06 0.06 94 1009.3
20260508231530 73 360 0.0 0.0 0.00 0.06 0.06 94 1009.1
20260508230024 73 360 0.0 0.0 0.00 0.06 0.06 94 1009.0
20260508224528 73 360 0.0 0.0 0.00 0.06 0.06 94 1009.0
20260508223026 73 360 0.0 0.0 0.00 0.06 0.06 94 1009.2
20260508221530 73 360 0.0 0.0 0.00 0.06 0.06 94 1009.1
20260508220025 73 360 0.0 0.0 0.00 0.06 0.06 94 1009.2
20260508214528 72 360 0.0 0.0 0.00 0.06 0.06 94 1009.6
20260508213036 73 360 0.0 0.0 0.00 0.06 0.06 94 1009.6
20260508211519 72 360 0.0 0.0 0.00 0.06 0.06 94 1009.3
20260508210012 72 360 0.0 0.0 0.00 0.06 0.06 94 1009.8
20260508204531 72 360 0.0 0.0 0.00 0.06 0.06 94 1009.6
20260508203059 72 360 0.0 0.0 0.00 0.06 0.06 94 1009.8
20260508201553 72 360 0.0 0.0 0.00 0.06 0.06 94 1009.9
20260508200055 71 5 0.0 0.0 0.00 0.06 0.06 95 1010.1
20260508194519 71 5 0.0 0.0 0.00 0.06 0.06 94 1010.4
20260508193013 71 5 0.0 0.0 0.00 0.06 0.06 94 1010.5
20260508191531 71 5 0.0 0.0 0.00 0.06 0.06 94 1010.4
20260508190012 71 5 0.0 0.0 0.01 0.06 0.06 94 1010.9
20260508184513 71 5 0.0 0.0 0.03 0.06 0.06 93 1010.7
20260508183015 71 9 0.0 0.0 0.03 0.06 0.06 94 1010.7
20260508181551 70 5 0.0 0.0 0.03 0.06 0.06 93 1011.0
20260508180043 70 5 0.0 0.0 0.03 0.05 0.05 93 1011.3
20260508174522 70 360 0.0 0.0 0.01 0.03 0.03 93 1011.6
20260508173025 70 360 0.0 0.0 0.01 0.03 0.03 94 1011.8
20260508171512 69 360 0.0 0.0 0.01 0.03 0.03 94 1011.7
20260508170012 69 360 0.0 0.0 0.01 0.02 0.02 93 1011.9
20260508164515 68 360 0.0 0.0 0.01 0.02 0.02 93 1012.0
20260508163014 68 360 0.0 0.0 0.01 0.02 0.02 93 1012.6
20260508161536 68 355 0.0 0.0 0.02 0.02 0.02 93 1012.7
20260508160038 67 355 0.0 0.0 0.01 0.01 0.01 93 1013.1
20260508154518 67 355 0.0 0.0 0.01 0.01 0.01 93 1012.8
20260508153035 67 28 0.0 0.0 0.01 0.01 0.01 91 1012.9
20260508151514 67 24 0.0 0.0 0.00 0.00 0.00 90 1012.7
20260508150020 67 5 0.0 0.0 0.00 0.00 0.00 90 1012.9
20260508144521 67 11 0.0 0.0 0.00 0.00 0.00 90 1013.4
20260508143022 67 17 0.0 0.0 0.00 0.00 0.00 90 1013.4
20260508141522 68 22 0.0 0.0 0.00 0.00 0.00 89 1013.7
20260508140029 68 23 0.0 0.0 0.00 0.00 0.00 88 1013.3
20260508134528 68 20 0.0 0.0 0.00 0.00 0.00 88 1012.6
20260508133017 68 19 0.0 0.0 0.00 0.00 0.00 88 1012.6
20260508131518 68 19 0.0 0.0 0.00 0.00 0.00 87 1012.8
20260508130041 68 19 0.0 0.0 0.00 0.00 0.00 87 1012.9
20260508124530 68 18 0.0 0.0 0.00 0.00 0.00 87 1012.6
20260508123022 68 14 0.0 0.0 0.00 0.00 0.00 87 1012.8
20260508121526 68 13 0.0 0.0 0.00 0.00 0.00 86 1013.0
20260508120042 68 5 0.0 0.0 0.00 0.00 0.00 86 1012.8
20260508114524 68 5 0.0 0.0 0.00 0.00 0.00 86 1013.0
20260508113029 68 350 0.0 0.0 0.00 0.00 0.00 86 1012.9
20260508111531 68 5 0.0 0.0 0.00 0.00 0.00 85 1012.3
20260508110024 68 5 0.0 0.0 0.00 0.00 0.00 85 1012.7
20260508104549 68 20 0.0 0.0 0.00 0.00 0.00 86 1012.8
20260508103031 68 47 0.0 0.0 0.00 0.00 0.00 86 1012.2
20260508101512 68 13 0.0 0.0 0.00 0.00 0.00 86 1012.6
20260508100037 68 360 0.0 0.0 0.00 0.00 0.00 86 1013.0
20260508094554 68 45 0.0 0.0 0.00 0.00 0.00 87 1011.8
20260508093051 68 35 0.0 0.0 0.00 0.00 0.00 86 1012.4
20260508091532 68 35 0.0 0.0 0.00 0.00 0.00 86 1012.4
20260508090027 68 35 0.0 0.0 0.00 0.00 0.00 85 1012.7
20260508084530 68 24 0.0 0.0 0.00 0.00 0.00 85 1012.8
20260508083030 69 26 0.0 0.0 0.00 0.00 0.00 85 1012.7